Tracking 19909 objects as of 21-Oct-2019
HD Live streaming from Space Station
objects crossing your sky now

WESTFORD NEEDLES

Track WESTFORD NEEDLES now!
10-day predictions
WESTFORD NEEDLES is classified as:


NORAD ID: 20023
Int'l Code: 1963-014EZ
Perigee: 490.9 km
Apogee: 6,253.1 km
Inclination: 84.0 °
Period: 159.5 minutes
Semi major axis: 9742 km
RCS: 0.014 m2 (small)
Launch date: May 9, 1963
Source: United States (US)
Launch site: AIR FORCE WESTERN TEST RANGE (AFWTR)
aabbcc
Your satellite tracking list
Your tracking list is empty




NASA's NSSDC Master Catalog

Two Line Element Set (TLE):
1 20023U 63014EZ  19196.25143733  .00009519  00000-0  53843-2 0  9994
2 20023  83.9783 284.9517 2957129 306.0965  30.0303  9.02744264787714
Source of the keplerian elements: AFSPC